Tracking 28915 objects as of 30-May-2024
HD Live streaming from Space Station
objects crossing your sky now

SPIRIT

Track SPIRIT now!
10-day predictions
SPIRIT is classified as:


NORAD ID: 58468
Int'l Code: 2023-185G
Perigee: 505.1 km
Apogee: 522.1 km
Inclination: 97.4 °
Period: 94.7 minutes
Semi major axis: 6884 km
RCS: Unknown
Launch date: December 1, 2023
Source: Australia (AUS)
Launch site: AIR FORCE WESTERN TEST RANGE (AFWTR)

Uplink (MHz):
Downlink (MHz): 401.895
Beacon (MHz):
Mode: 9600bps FSK
Call sign:
Status: Active

Your satellite tracking list
Your tracking list is empty




NASA's NSSDC Master Catalog

Two Line Element Set (TLE):
1 58468U 23185G   24151.16830341  .00007158  00000-0  33664-3 0  9995
2 58468  97.4259 217.6667 0012343 354.0013   6.1072 15.19807970 27375
Source of the keplerian elements: AFSPC